Location: Greenwich
(51.4790°N, 0.0090°E)
Time: 11:16:53
(UTC+01:00)

Altair - All Passes

Search period start: 17 April 2024 00:00
Search period end: 27 April 2024 00:00
Orbit: 1502 x 1682 km, 47.2° (Epoch: 16 April)

Date Brightness Start Highest point End Pass type
(mag) Time Alt. Az. Time Alt. Az. Time Alt. Az.
17 Apr - 00:16:24 10° W 00:26:05 68° S 00:35:23 10° ESE visible
17 Apr - 02:21:04 10° W 02:29:57 44° SSW 02:38:33 10° SE visible
17 Apr - 04:27:20 10° W 04:32:37 17° SW 04:37:51 10° SSW visible
17 Apr - 19:44:39 10° SSW 19:53:03 32° SE 20:01:14 10° E daylight
17 Apr - 21:46:53 10° WSW 21:56:37 60° SSE 22:05:59 10° E visible
17 Apr - 23:51:10 10° W 00:00:53 69° S 00:10:14 10° ESE visible
18 Apr - 01:55:49 10° W 02:04:50 47° SSW 02:13:33 10° SE visible
18 Apr - 04:01:47 10° W 04:07:37 18° SW 04:13:21 10° SSW visible
18 Apr - 19:19:44 10° SSW 19:27:57 30° SE 19:35:58 10° E daylight
18 Apr - 21:21:43 10° SW 21:31:26 59° SSE 21:40:48 10° E visible
18 Apr - 23:25:56 10° W 23:35:42 70° S 23:45:05 10° ESE visible
19 Apr - 01:30:35 10° W 01:39:43 49° SSW 01:48:31 10° SE visible
19 Apr - 03:36:18 10° W 03:42:35 20° SW 03:48:46 10° S visible
19 Apr - 18:54:51 10° S 19:02:52 28° SE 19:10:41 10° E daylight
19 Apr - 20:56:35 10° SW 21:06:15 57° SSE 21:15:37 10° E visible
19 Apr - 23:00:42 10° W 23:10:30 70° S 23:19:56 10° ESE visible
20 Apr - 01:05:20 10° W 01:14:35 51° SSW 01:23:29 10° SE visible
20 Apr - 03:10:51 10° W 03:17:33 22° SW 03:24:07 10° S visible
20 Apr - 18:30:01 10° S 18:37:46 26° SE 18:45:23 10° E daylight
20 Apr - 20:31:26 10° SW 20:41:05 55° SSE 20:50:26 10° E visible
20 Apr - 22:35:28 10° W 22:45:18 70° S 22:54:46 10° E visible
21 Apr - 00:40:05 10° W 00:49:27 53° SSW 00:58:27 10° SE visible
21 Apr - 02:45:27 10° W 02:52:31 24° SW 02:59:26 10° S visible
21 Apr - 18:05:13 10° S 18:12:41 24° SE 18:20:02 10° E daylight
21 Apr - 20:06:18 10° SW 20:15:55 53° SSE 20:25:15 10° E daylight
21 Apr - 22:10:14 10° W 22:20:06 70° S 22:29:37 10° E visible
22 Apr - 00:14:51 10° W 00:24:17 55° SSW 00:33:23 10° SE visible
22 Apr - 02:20:04 10° W 02:27:29 26° SW 02:34:41 10° S visible
22 Apr - 17:40:27 10° S 17:47:37 23° SE 17:54:40 10° E daylight
22 Apr - 19:41:11 10° SW 19:50:45 51° SSE 20:00:03 10° E daylight
22 Apr - 21:45:00 10° WSW 21:54:54 70° S 22:04:27 10° E visible
22 Apr - 23:49:36 10° W 23:59:08 57° SSW 00:08:19 10° SE visible
23 Apr - 01:54:44 10° W 02:02:25 28° SW 02:09:54 10° S visible
23 Apr - 17:15:45 10° S 17:22:33 21° SE 17:29:15 10° E daylight
23 Apr - 19:16:05 10° SW 19:25:35 49° SSE 19:34:51 10° E daylight
23 Apr - 21:19:46 10° WSW 21:29:42 70° S 21:39:16 10° E visible
23 Apr - 23:24:21 10° W 23:33:59 59° SSW 23:43:13 10° ESE visible
24 Apr - 01:29:24 10° W 01:37:21 30° SW 01:45:05 10° SSE visible
24 Apr - 16:51:07 10° S 16:57:29 19° SE 17:03:48 10° E daylight
24 Apr - 18:51:00 10° SW 19:00:26 47° SSE 19:09:39 10° E daylight
24 Apr - 20:54:33 10° WSW 21:04:30 69° S 21:14:06 10° E visible
24 Apr - 22:59:07 10° W 23:08:48 61° SSW 23:18:07 10° ESE visible
25 Apr - 01:04:05 10° W 01:12:17 32° SW 01:20:13 10° SSE visible
25 Apr - 16:26:32 10° SSE 16:32:26 17° SE 16:38:17 10° E daylight
25 Apr - 18:25:56 10° SW 18:35:17 45° SSE 18:44:26 10° E daylight
25 Apr - 20:29:20 10° WSW 20:39:17 68° S 20:48:55 10° E visible
25 Apr - 22:33:52 10° W 22:43:38 63° SSW 22:53:00 10° ESE visible
26 Apr - 00:38:46 10° W 00:47:12 34° SW 00:55:21 10° SSE visible
26 Apr - 16:02:04 10° SSE 16:07:24 16° SE 16:12:41 10° E daylight
26 Apr - 18:00:53 10° SSW 18:10:08 42° SSE 18:19:12 10° E daylight
26 Apr - 20:04:07 10° WSW 20:14:05 67° S 20:23:44 10° E daylight
26 Apr - 22:08:38 10° W 22:18:27 64° SSW 22:27:53 10° ESE visible
